This is the latest recevied weather packets stored in our database for station/object KB2SKP. If no packets are shown the sender has not sent any weather packets the latest 10 day(s).
| Time | Temp. | Humidity | Pressure | Rain* | Wind** | Luminosity | Snow |
|---|---|---|---|---|---|---|---|
| 1778086552 | 17.22° C | 92% | 1007.1 hPa | 0 mm | - | 117 W/m² | - |
| 1778086248 | 17.22° C | 92% | 1006.9 hPa | 0 mm | - | 121 W/m² | - |
| 1778085945 | 17.22° C | 93% | 1006.9 hPa | 0 mm | - | 110 W/m² | - |
| 1778085643 | 16.67° C | 93% | 1006.9 hPa | 0 mm | - | 92 W/m² | - |
| 1778085338 | 16.67° C | 93% | 1006.9 hPa | 0.51 mm | - | 73 W/m² | - |
| 1778085034 | 16.67° C | 93% | 1006.9 hPa | 0.51 mm | - | 84 W/m² | - |
| 1778084730 | 16.67° C | 93% | 1006.8 hPa | 0.51 mm | - | 88 W/m² | - |
| 1778084427 | 16.67° C | 93% | 1007.3 hPa | 1.27 mm | - | 87 W/m² | - |
| 1778084125 | 16.67° C | 93% | 1007.3 hPa | 0.51 mm | - | 77 W/m² | - |
| 1778083816 | 16.11° C | 93% | 1007.6 hPa | 1.27 mm | - | 82 W/m² | - |
| 1778083514 | 16.11° C | 92% | 1007.3 hPa | 1.78 mm | - | 61 W/m² | - |
| 1778083211 | 16.67° C | 92% | 1007.8 hPa | 2.29 mm | - | 35 W/m² | - |
| 1778082909 | 16.67° C | 91% | 1007.8 hPa | 2.29 mm | - | 32 W/m² | - |
| 1778081801 | 17.22° C | 88% | 1007.8 hPa | 0.51 mm | - | 78 W/m² | - |
| 1778081498 | 17.22° C | 87% | 1008 hPa | 0 mm | - | 70 W/m² | - |
| 1778081195 | 17.78° C | 86% | 1008.3 hPa | 0 mm | - | 24 W/m² | - |
| 1778080892 | 17.78° C | 86% | 1008.3 hPa | 0 mm | - | 24 W/m² | - |
| 1778080591 | 17.78° C | 85% | 1008.2 hPa | 0 mm | - | 36 W/m² | - |
| 1778080287 | 17.78° C | 84% | 1008.2 hPa | 0 mm | - | 61 W/m² | - |
| 1778079984 | 17.78° C | 84% | 1008.3 hPa | 0 mm | - | 51 W/m² | - |
| 1778079681 | 18.33° C | 84% | 1008.3 hPa | 0 mm | - | 42 W/m² | - |
| 1778079378 | 18.33° C | 85% | 1008.4 hPa | 0 mm | - | 84 W/m² | - |
| 1778079075 | 17.78° C | 84% | 1008.2 hPa | 0 mm | - | 73 W/m² | - |
| 1778078772 | 17.78° C | 85% | 1008 hPa | 0 mm | - | 76 W/m² | - |
| 1778078469 | 17.78° C | 85% | 1008.2 hPa | 0 mm | - | 61 W/m² | - |
* Rain latest hour (hover to see other rain measurements)
** Current wind speed in m/s (hover to see current wind gust speed)